Tracking 29892 objects as of 21-Nov-2024
HD Live streaming from Space Station
objects crossing your sky now

STARLINK-6067

Track STARLINK-6067 now!
10-day predictions
STARLINK-6067 is classified as:


NORAD ID: 56816
Int'l Code: 2023-078BB
Perigee: 577.2 km
Apogee: 581.2 km
Inclination: 70.0 °
Period: 96.1 minutes
Semi major axis: 6950 km
RCS: Unknown
Launch date: May 31, 2023
Source: United States (US)
Launch site: AIR FORCE WESTERN TEST RANGE (AFWTR)
Your satellite tracking list
Your tracking list is empty




NASA's NSSDC Master Catalog

Two Line Element Set (TLE):
1 56816U 23078BB  24324.66076911  .00001612  00000-0  14281-3 0  9996
2 56816  69.9993  81.9772 0002900 261.5321  98.5509 14.98336535 82023
Source of the keplerian elements: AFSPC